STARLINK-32175, 60339

Orbit data source: Space-Track

STARLINK-32175, 60339 is a payload satellite owned by SpaceX/Seattle (US) in LEO that was launched on Fri, 02 Aug 2024 UTC via an FALCON 9 launch vehicle from the Air Force Eastern Test Range (AFETR). Payload-class satellites include a variety of spacecraft equipped with specific instruments for various scientific and technological missions. These include communications satellites like Starlink; space stations such as the ISS; scientific satellites like the Hubble; Earth observation satellites from companies like Planet Labs, Umbra, and HawkEye 360; GPS; miniature CubeSats for education and research; and military/defense satellites.

Loading next visibility...
Identifier
60339, 2024-136L
Orbit
LEO
Country
Flag of USUS
Related business
Manufacturer
SpaceX/Seattle
Mission
Operational Commercial Communications
Bus & Motor
STARLINK V2M, Unknown motor
Mass
730 kg wet, ~700 kg dry
Launch date (UTC)
2024-08-02 (1 year ago)
Launch vehicle
FALCON 9
Launch site
Air Force Eastern Test Range (AFETR)
Object type
Payload
Rocket body
Debris
Shape & HBR
Box + 2 Pan, 14.5 m
Radar Cross Section
33.884 m², Large (>1 m²)

Expand to show TLE details & history
Last TLE update: 1 day ago

TLE from 1 day ago
0 STARLINK-32175
1 60339U 24136L   25258.05508650  .00001483  00000-0  62200-4 0  9998
2 60339  53.1594 171.5049 0001470  84.5909 275.5259 15.30197807 62772
Epoch: 2025-09-15T01:19Z
TLE epoch observation values (Epoch: 2025-09-15T01:19:19.473Z)
Latitude
-0.00006°
Longitude
157.40848°
Altitude
476.024 km
Speed
7.629 km/s
True Right ascension
11h 26m 01s
True Declination
0° 00' 00"
Sunlit
Object was in daylight at epoch
Visualization orbit readout
Latitude
Unknown
Longitude
Unknown
Altitude
Unknown
Speed
Unknown
Apparent Right ascension
Unknown
Apparent Declination
Unknown
Sunlit
N/A
Visualization observer readout
Local Sidereal Time
01:30:05
Azimuth
Unknown
Elevation
Unknown
Doppler factor
Unknown
Orbital elements
Apogee altitude
476.486 km
Perigee altitude
474.471 km
Semi-major axis
6,853.615 km
Eccentricity
0.00015
Inclination
53.1594°
RAAN
171.5049°
Arg. of periapsis
84.5909°
True anomaly
275.50913°
Mean anomaly
275.5259°
Eccentric anomaly
275.51752°
Mean motion
3.82528 °/min
Orbital period
94.11 mins
BSTAR
0.0000622
Loading maneuver chart data...
Computing Atmospheric mass density...
Loading historical data...
Loading historical data...
Loading historical data...
Loading historical data...
Loading historical data...
Loading historical data...
Loading historical data...

Documentation

Showing up to 5 results
|